SCP
2 2 1 1 0 1 1 1 1 0 0 0 0 1 1 1 1 1 1 1 1 1 1 1 1 1 1 1 1 1 1 1 1 1 1 1 1 1 1 2 2 2 2
2 2 1 1 1 0 1 1 1 0 0 1 1 1 1 1 1 1 1 1 1 1 1 1 1 1 1 1 1 1 1 1 1 1 1 1 1 1 1 1 2 2 2
2 2 2 1 1 0 0 0 0 0 1 1 1 1 1 1 1 1 1 1 1 1 1 1 1 1 1 1 1 1 1 1 1 1 2 2 2 1 1 1 1 1 2
2 3 3 2 1 1 1 1 0 1 1 1 1 1 1 1 1 1 1 1 1 1 1 1 1 1 1 1 1 1 1 1 2 2 2 2 3 3 2 2 1 1 1
3 3 3 2 1 1 1 1 1 1 1 2 2 2 2 2 2 1 1 1 1 1 1 1 1 1 1 1 1 1 1 2 2 2 3 3 4 4 4 3 2 2 1
3 3 3 2 1 1 1 1 1 1 1 2 3 3 3 2 2 2 1 1 1 1 1 1 1 1 1 1 1 1 1 2 2 3 3 4 5 6 6 6 4 2 1
2 3 2 2 1 1 1 1 2 2 2 3 3 3 3 3 3 2 2 2 2 2 2 2 2 2 2 1 1 1 1 2 2 3 4 5 6 6 6 6 4 2 1
2 2 2 2 1 1 1 1 2 2 2 3 3 4 4 3 3 2 2 2 2 2 2 3 3 2 2 1 1 1 1 2 2 3 4 4 4 4 3 3 2 1 1
2 2 2 2 2 1 1 1 2 2 2 3 3 3 3 3 2 2 2 2 2 2 3 3 3 2 2 1 1 1 2 2 3 3 2 2 2 2 1 1 1 1 1
2 2 2 2 2 2 1 2 2 3 3 4 3 3 3 3 2 2 2 2 2 3 3 4 3 2 1 1 1 2 2 2 2 2 1 1 1 1 1 1 1 1 1
3 2 2 2 2 2 2 2 3 4 4 4 4 3 3 2 2 2 2 2 2 3 4 4 3 2 1 1 2 2 2 2 1 1 1 1 1 1 1 1 1 1 1
3 2 2 2 2 2 2 2 3 4 4 4 3 3 2 2 2 2 2 2 2 3 4 4 3 2 2 2 2 2 2 1 1 1 1 1 1 1 1 1 1 1 1
3 3 2 2 2 2 2 2 3 3 3 3 3 2 2 2 2 1 2 2 3 4 4 4 4 3 3 3 3 3 2 1 1 1 1 1 1 1 1 1 1 1 1
3 3 2 2 2 2 2 2 2 2 2 3 3 3 3 2 2 1 2 2 3 4 4 4 4 3 3 3 3 3 2 1 1 1 1 1 1 1 1 1 1 1 2
4 3 2 2 2 2 2 2 2 2 3 3 4 4 4 3 3 2 2 3 3 3 3 3 3 3 3 3 3 3 2 1 1 1 1 1 1 1 1 1 1 2 2
4 3 3 3 2 2 2 2 2 2 3 3 4 5 5 4 4 3 4 4 4 3 2 2 2 3 3 3 3 3 2 1 1 1 1 2 1 1 1 1 1 1 2
3 3 3 3 2 2 2 2 2 2 3 3 4 6 6 5 4 5 5 5 4 3 2 2 2 2 2 2 2 2 1 1 1 1 1 1 1 1 1 1 1 1 1
3 3 4 3 2 2 2 2 2 2 2 3 4 5 5 5 5 6 6 5 4 3 3 3 3 2 2 1 1 1 1 1 1 1 1 1 1 1 1 2 1 2 2
3 4 4 3 2 2 2 2 2 2 2 2 3 4 4 5 5 6 6 5 4 4 4 4 3 3 2 1 1 1 1 1 1 1 1 1 1 1 1 2 2 2 2
3 3 3 3 2 2 2 2 2 2 2 3 3 4 4 4 5 5 5 4 4 4 4 4 3 3 2 1 1 1 1 1 1 1 1 2 2 1 1 2 2 2 2
3 3 3 3 3 2 2 2 2 2 2 3 3 4 4 4 4 4 4 4 4 4 4 3 3 3 2 2 1 1 1 1 1 2 2 3 2 2 1 1 2 2 2
3 3 3 3 3 2 1 2 2 2 2 2 3 3 4 5 5 4 4 4 4 4 3 3 3 3 3 2 2 1 1 1 1 2 2 3 2 2 1 1 1 1 2
3 3 3 3 2 2 2 2 3 3 2 2 2 3 4 5 5 5 4 4 3 4 3 3 3 3 3 3 2 1 1 1 1 1 2 1 1 1 1 1 1 2 3
3 3 3 3 2 2 2 3 4 3 2 2 2 3 4 5 5 5 5 4 4 4 4 4 3 3 3 3 2 1 1 1 1 1 1 1 1 1 2 2 2 3 3
3 3 3 3 3 3 3 3 3 2 2 2 2 3 4 5 5 5 5 4 4 3 3 4 3 3 3 2 2 2 1 1 1 1 1 1 1 2 2 2 2 3 2
3 3 3 3 3 3 3 2 2 1 1 2 3 3 4 4 5 5 4 4 3 3 3 3 3 3 3 2 1 1 1 1 1 1 1 2 2 2 2 2 2 2 2
Wind_Speed
5 4 5 5 4 4 4 3 3 2 2 2 1 1 0 1 1 1 1 1 1 1 2 1 1 1 1 0 0 1 1 1 1 1 2 2 2 1 1 1 1 1 2
4 5 5 5 5 5 5 4 4 3 2 2 1 1 1 0 0 1 1 1 1 1 1 1 1 1 1 1 1 0 1 1 1 1 1 2 3 2 2 1 1 1 1
9 7 7 6 6 6 6 6 5 4 3 3 2 2 2 2 1 1 1 1 1 1 0 1 1 1 1 0 1 0 1 0 1 1 1 1 1 2 2 2 1 2 1
8 7 7 7 7 7 6 5 5 4 4 3 3 3 2 1 1 1 1 1 1 1 0 1 1 1 1 0 1 0 0 1 0 0 0 1 2 1 1 2 1 2 2
9 9 10 9 8 7 6 5 5 4 4 4 4 3 2 2 1 0 0 1 1 1 0 1 1 1 1 1 0 0 0 0 1 1 0 0 0 1 1 2 3 2 1
8 8 7 6 5 5 5 5 5 5 4 5 4 4 4 3 2 1 1 1 1 1 1 0 1 1 1 1 1 0 0 1 1 1 1 1 1 1 1 2 2 3 2
7 7 7 7 7 6 6 6 6 5 5 5 5 5 5 4 4 3 2 2 1 1 1 1 1 1 1 1 1 1 1 1 1 1 1 1 1 1 2 1 1 2 2
7 7 7 7 7 7 7 7 7 6 6 6 5 4 4 3 2 3 2 2 2 2 2 1 1 1 1 1 1 0 1 0 1 1 1 1 1 1 2 2 2 1 2
6 6 6 6 7 7 7 7 7 6 6 5 5 4 4 3 3 2 2 1 1 1 1 1 1 1 1 1 1 1 1 0 1 1 0 0 1 1 1 1 2 2 1
5 6 6 6 6 6 6 6 6 7 6 5 5 4 4 4 3 2 2 2 2 1 1 1 1 0 0 0 1 0 0 0 0 0 0 0 1 1 1 1 1 2 2
6 6 5 5 5 5 5 5 5 5 5 5 5 4 3 3 3 3 3 3 2 2 1 1 1 1 1 0 1 1 0 0 0 1 0 1 1 1 1 1 1 1 2
4 4 5 4 5 5 5 5 5 5 5 5 5 4 3 3 3 3 3 2 2 2 2 2 1 1 1 1 1 1 1 1 1 1 1 2 1 1 1 1 1 1 2
4 3 3 4 4 4 4 4 5 5 4 5 5 4 4 4 4 3 3 3 2 2 2 2 2 2 2 2 2 2 1 2 2 2 2 2 1 2 2 1 1 2 1
4 4 3 3 3 3 4 4 4 4 4 4 4 5 5 5 4 3 3 3 3 3 3 3 3 3 3 2 2 2 2 2 2 2 3 3 3 3 3 2 2 1 1
3 4 4 3 3 3 3 3 4 4 4 4 4 5 5 4 3 3 3 3 3 3 3 3 3 3 3 3 3 3 3 2 2 2 3 3 3 4 3 2 2 2 1
4 4 4 4 4 4 4 3 3 3 4 4 5 4 4 4 4 4 3 3 3 3 2 3 3 3 3 3 4 3 2 2 2 3 3 3 3 3 3 3 3 3 3
4 4 4 4 4 4 4 4 3 3 4 4 4 3 3 4 4 4 3 4 4 3 2 3 3 3 3 3 3 3 2 2 2 3 3 3 2 2 2 2 2 3 3
4 4 4 3 3 3 3 3 2 3 3 3 3 3 3 3 3 3 4 4 3 3 3 3 3 3 3 3 3 3 2 2 2 3 3 3 3 3 2 2 2 2 3
3 3 3 3 3 2 3 3 2 2 1 2 2 2 3 3 3 4 4 4 3 3 3 3 3 3 3 2 2 2 1 1 3 3 3 3 3 4 2 2 2 3 3
1 2 2 3 3 2 3 4 2 2 2 2 2 2 2 3 4 4 4 3 3 4 3 2 2 3 3 3 3 3 1 2 2 3 3 4 4 4 2 2 2 3 4
2 3 3 3 2 2 3 3 2 2 2 1 1 1 1 2 3 3 3 3 3 2 2 2 2 2 3 3 3 3 2 3 3 3 3 3 4 5 4 3 3 5 4
3 3 3 2 2 2 3 2 1 2 1 0 0 1 1 1 1 1 2 2 3 3 2 2 2 2 2 3 3 4 4 3 3 3 3 3 3 4 3 2 3 4 3
2 2 3 2 2 2 2 2 1 1 1 1 0 0 0 0 0 1 2 1 2 2 2 2 3 3 2 2 4 4 5 5 3 3 3 3 3 3 2 3 4 3 1
1 2 3 2 1 1 1 1 1 1 2 1 1 0 0 0 1 1 1 2 2 3 3 3 3 3 2 2 2 2 3 3 3 2 2 3 3 2 2 2 2 1 1
1 2 3 2 0 0 0 1 1 1 1 1 1 1 1 1 1 1 2 3 3 4 4 4 3 3 4 4 4 3 3 3 2 1 1 0 1 1 1 1 1 1 1
1 2 1 1 1 0 0 1 1 2 2 1 1 1 1 1 1 1 1 1 2 3 5 5 4 4 5 4 4 5 5 4 3 2 1 2 2 2 2 2 2 2 2
Wind_Direction
201 180 175 168 158 158 156 162 158 153 123 99 92 80 355 333 2 342 0 46 61 85 109 95 67 69 75 44 50 87 53 21 15 51 16 6 12 14 350 321 312 299 281
187 185 178 173 175 176 177 178 184 174 167 157 141 143 150 191 248 342 8 25 39 60 117 114 99 77 72 37 29 76 88 8 38 93 72 355 353 3 358 357 345 326 317
195 193 187 186 184 186 188 192 192 186 184 164 117 85 62 38 29 4 350 341 343 15 69 120 131 104 109 75 313 305 144 192 10 81 140 150 259 318 337 347 348 334 327
196 191 190 191 196 197 187 186 184 183 182 166 155 153 157 182 221 243 292 324 354 14 106 135 144 144 133 172 276 20 198 166 270 2 70 178 181 192 306 325 340 335 329
195 194 195 196 198 190 181 182 176 183 181 176 175 171 182 197 190 174 311 318 332 336 355 166 153 158 177 208 267 42 89 163 202 205 200 159 88 185 213 289 316 328 321
194 195 193 187 188 179 177 175 178 190 186 182 183 186 193 187 175 200 235 285 301 310 311 211 172 191 210 231 245 217 189 217 212 209 193 185 184 198 197 244 285 300 304
184 185 184 187 188 184 184 180 180 194 192 188 193 197 197 185 192 206 216 232 261 277 272 253 220 221 229 232 224 218 263 247 238 232 222 209 215 186 177 200 256 289 304
180 185 187 187 188 188 190 184 185 193 191 192 198 198 190 187 199 207 207 220 232 248 254 241 240 253 252 241 208 223 257 265 257 264 245 221 221 186 187 188 186 274 307
179 183 180 181 186 184 188 188 184 187 188 187 185 184 186 189 197 199 199 214 228 238 240 245 247 254 239 226 190 190 257 277 281 287 291 257 252 218 212 201 195 193 259
171 174 177 185 189 184 178 177 179 185 184 181 189 191 191 193 192 184 202 212 223 221 215 247 251 264 280 119 139 185 268 94 331 262 214 301 300 282 213 204 209 207 212
181 177 176 181 178 168 165 168 176 176 177 181 182 184 187 185 179 192 209 209 204 198 201 220 234 227 233 220 152 205 140 139 333 330 329 309 298 285 272 219 198 202 205
182 168 162 158 159 159 166 173 176 178 184 179 174 184 187 185 193 208 213 201 202 206 206 201 214 231 242 238 202 228 214 215 244 265 278 297 299 286 259 230 221 226 220
157 147 144 153 165 169 173 179 182 184 180 169 172 180 189 195 206 214 209 200 202 207 211 206 218 231 234 228 222 227 235 230 240 248 252 264 258 269 261 248 251 252 246
153 150 158 166 171 173 177 184 193 186 177 170 179 193 203 207 211 212 206 205 204 204 217 221 225 230 229 222 225 227 231 237 250 256 252 251 242 246 247 246 245 246 260
157 167 170 171 167 166 177 190 198 186 178 175 192 213 210 202 201 206 210 207 208 216 216 218 231 234 227 231 232 227 229 235 254 270 270 264 256 252 247 244 231 219 226
185 185 174 169 179 185 188 190 198 187 173 188 209 214 200 194 199 206 206 202 210 217 210 220 230 239 247 244 232 225 229 233 242 264 279 280 277 280 272 261 237 213 215
189 186 188 188 196 196 189 193 197 173 174 191 205 208 199 202 207 204 195 203 208 205 212 224 228 244 253 245 238 228 227 238 248 256 268 281 291 282 274 284 269 248 237
185 186 190 192 195 180 172 174 152 150 168 186 192 193 192 205 205 196 204 209 203 201 211 222 229 240 258 248 236 231 229 249 261 262 256 256 272 273 267 273 284 281 271
191 190 182 175 163 156 157 140 129 130 153 205 222 204 195 203 201 205 215 212 202 207 211 214 221 230 260 253 227 208 223 258 271 269 262 255 259 272 266 254 274 289 290
128 132 118 111 124 133 133 132 139 140 199 230 235 230 208 202 210 214 218 213 203 213 212 221 225 226 245 248 220 190 196 243 270 278 271 262 263 274 261 230 245 270 279
92 104 108 111 131 130 127 135 145 200 230 233 227 223 220 214 213 213 215 202 199 198 200 216 237 239 245 248 235 213 204 229 253 264 270 270 268 265 258 237 237 254 263
94 103 103 92 78 96 112 116 200 255 252 134 139 232 245 247 221 201 217 198 188 196 210 221 252 257 253 245 244 236 235 235 237 253 261 266 264 255 250 248 266 266 258
105 104 106 87 66 92 125 144 231 239 106 87 34 300 40 338 221 206 213 208 199 208 222 226 245 263 258 252 246 244 245 242 236 252 256 260 258 251 254 261 263 255 249
109 109 104 95 63 59 91 200 229 147 112 113 295 296 226 280 286 253 219 204 216 219 219 226 238 255 259 259 253 243 242 242 249 266 274 267 265 268 280 300 285 258 247
144 121 122 130 193 105 330 264 224 148 145 184 247 268 260 237 244 246 235 222 223 218 218 228 226 228 246 247 232 218 228 224 225 216 272 308 311 289 295 296 291 275 258
141 110 116 154 214 203 201 285 245 170 168 207 253 251 251 252 245 255 292 261 235 241 228 225 226 235 239 245 227 231 234 222 187 166 221 246 250 251 254 255 259 255 252